Location: Unspecified
(0.0000°N, 0.0000°E)
Time: 07:46:33
(UTC+00:00)

deb Midas III - Pass Details

Date: 12 March 2026
Orbit: 3314 x 3545 km, 91.1° (Epoch: 18 April)

Event Time Altitude Azimuth Distance (km) Brightness Sun altitude
Rises 23:54:31 0° 142° (SE) 7,606 ? -84.9°
Reaches altitude 10° 00:00:54 10° 127° (SE) 6,560 ? -85.9°
Enters shadow 00:01:41 11° 125° (SE) 6,447 ? -86.0°
Exits shadow 00:25:41 10° 37° (NE) 6,482 ? -84.8°
Sets 00:31:16 0° 24° (NNE) 7,435 ? -83.7°
